FENGYUN 1C DEB, 30157

Orbit data source: Space-Track

FENGYUN 1C DEB, 30157 is space debris in SSO originally from a launch on Mon, 10 May 1999 UTC launched from the Taiyaun Space Center, China (TSC). Fengyun 1C debris stems from the Chinese weather satellite Fengyun-1C, which was intentionally destroyed by a Chinese anti-satellite missile in 2007. This event dramatically increased the amount of space debris, with thousands of trackable fragments posing hazards to satellites and human spaceflight. The Fengyun 1C debris cloud has become a focal point in discussions about space sustainability and the need for international regulations to prevent the creation of new debris.

Loading next visibility...
Identifier
30157, 1999-025TN
Orbit
SSO
Country
Flag of CNCN / PRC
Related business
Manufacturer
Unknown
Mission
Spacecraft
Bus & Motor
Unknown
Mass
Unknown
Launch date (UTC)
1999-05-10 (27 years ago)
Launch vehicle
Unknown
Launch site
Taiyaun Space Center, China (TSC)
Object type
Payload
Rocket body
Debris
Shape & HBR
Unknown shape, 0.1 m
Radar Cross Section
Small (<0.1 m²)

Expand to show TLE details & history
Last TLE update: 8 hours ago

TLE from 8 hours ago
0 FENGYUN 1C DEB
1 30157U 99025TN  26071.25110507  .00007329  00000-0  20295-2 0  9999
2 30157  98.7099 175.7034 0034631 281.2210 107.4576 14.46570925993666
Epoch: 2026-03-12T06:01Z
TLE epoch observation values (Epoch: 2026-03-12T06:01:35.478Z)
Latitude
28.73718°
Longitude
-89.39098°
Altitude
747.918 km
Speed
7.479 km/s
True Right ascension
11h 23m 38s
True Declination
28° 35' 32"
Sunlit
Object was in full shadow at epoch
Visualization orbit readout
Latitude
Unknown
Longitude
Unknown
Altitude
Unknown
Speed
Unknown
Apparent Right ascension
Unknown
Apparent Declination
Unknown
Sunlit
N/A
Visualization observer readout
Local Sidereal Time
18:38:04
Azimuth
Unknown
Elevation
Unknown
Doppler factor
Unknown
Orbital elements
Apogee altitude
758.624 km
Perigee altitude
709.363 km
Semi-major axis
7,112.13 km
Eccentricity
0.00346
Inclination
98.7099°
RAAN
175.7034°
Arg. of periapsis
281.221°
True anomaly
107.83567°
Mean anomaly
107.4576°
Eccentric anomaly
107.64668°
Mean motion
3.61863 °/min
Orbital period
99.49 mins
BSTAR
0.0020295
Loading maneuver chart data...
Computing Atmospheric mass density...
Loading historical data...
Loading historical data...
Loading historical data...
Loading historical data...
Loading historical data...
Loading historical data...
Loading historical data...

Documentation

Showing up to 5 results
|